• In Uzbekistan
  • List of Countries
  • For 7 days
  • Water Temperature
  • Satellite Maps
  • Weather Map
  • Weather Widgets
  • user-avatar
    Login

    Hourly Weather Korçe

    Today, 21 January, Sunday

    Time Temperature Precipitation Wind Pressure Humidity
    00:00 +3°C° 0.1 mm 2 mps 662 mmHg 95%
    01:00 +3°C° 0.1 mm 2 mps 662 mmHg 95%
    02:00 +2°C° 0 mm 2 mps 661 mmHg 94%
    03:00 +2°C° 0 mm 2 mps 661 mmHg 94%
    04:00 +2°C° 0 mm 2 mps 660 mmHg 94%
    05:00 +2°C° 0 mm 2 mps 660 mmHg 93%
    06:00 +2°C° 0 mm 2 mps 660 mmHg 93%
    07:00 +2°C° 0 mm 2 mps 659 mmHg 93%
    08:00 +3°C° 0.1 mm 2 mps 659 mmHg 90%
    09:00 +3°C° 0.1 mm 3 mps 659 mmHg 86%
    10:00 +4°C° 0.1 mm 3 mps 659 mmHg 83%
    11:00 +4°C° 0.2 mm 3 mps 659 mmHg 82%
    12:00 +5°C° 0.2 mm 3 mps 658 mmHg 81%
    13:00 +5°C° 0.2 mm 3 mps 657 mmHg 79%
    14:00 +4°C° 1.1 mm 3 mps 657 mmHg 83%
    15:00 +4°C° 1.1 mm 3 mps 656 mmHg 87%
    16:00 +4°C° 1.1 mm 2 mps 656 mmHg 90%
    17:00 +4°C° 1.9 mm 2 mps 656 mmHg 92%
    18:00 +3°C° 1.9 mm 2 mps 655 mmHg 93%
    19:00 +3°C° 1.9 mm 2 mps 655 mmHg 95%
    20:00 +3°C° 1 mm 2 mps 655 mmHg 95%
    21:00 +3°C° 1 mm 2 mps 655 mmHg 94%
    22:00 +2°C° 1 mm 3 mps 655 mmHg 94%
    23:00 +2°C° 0.4 mm 3 mps 655 mmHg 94%

    Tomorrow, 22 January, Monday

    Time Temperature Precipitation Wind Pressure Humidity
    00:00 +1°C° 0.4 mm 3 mps 655 mmHg 94%
    01:00 +1°C° 0.4 mm 3 mps 655 mmHg 93%
    02:00 +1°C° 0.5 mm 3 mps 656 mmHg 92%
    03:00 0°C° 0.5 mm 3 mps 656 mmHg 91%
    04:00 0°C° 0.5 mm 3 mps 656 mmHg 91%
    05:00 -1°C° 0 mm 3 mps 657 mmHg 90%
    06:00 -2°C° 0 mm 3 mps 657 mmHg 89%
    07:00 -2°C° 0 mm 3 mps 657 mmHg 89%
    08:00 -2°C° 0 mm 3 mps 658 mmHg 84%
    09:00 -1°C° 0 mm 3 mps 659 mmHg 78%
    10:00 0°C° 0 mm 3 mps 659 mmHg 73%
    11:00 -1°C° 0 mm 4 mps 660 mmHg 71%
    12:00 -1°C° 0 mm 4 mps 660 mmHg 68%
    13:00 0°C° 0 mm 4 mps 660 mmHg 66%
    14:00 0°C° 0 mm 3 mps 660 mmHg 67%
    15:00 0°C° 0 mm 3 mps 660 mmHg 68%
    16:00 +1°C° 0 mm 2 mps 661 mmHg 69%
    17:00 -1°C° 0 mm 2 mps 661 mmHg 72%
    18:00 -2°C° 0 mm 2 mps 661 mmHg 75%
    19:00 -3°C° 0 mm 2 mps 661 mmHg 79%
    20:00 -3°C° 0 mm 2 mps 662 mmHg 78%
    21:00 -4°C° 0 mm 2 mps 662 mmHg 78%
    22:00 -4°C° 0 mm 2 mps 663 mmHg 77%
    23:00 -4°C° 0 mm 2 mps 663 mmHg 76%

    Day after tomorrow, 23 January, Tuesday

    Time Temperature Precipitation Wind Pressure Humidity
    00:00 -2°C° 0 mm 1 mps 663 mmHg 75%
    01:00 -2°C° 0 mm 1 mps 663 mmHg 74%
    02:00 -2°C° 0 mm 1 mps 663 mmHg 73%
    03:00 -2°C° 0 mm 1 mps 663 mmHg 72%
    04:00 -2°C° 0 mm 1 mps 663 mmHg 71%
    05:00 -2°C° 0 mm 1 mps 663 mmHg 70%
    06:00 -2°C° 0 mm 1 mps 664 mmHg 70%
    07:00 -3°C° 0 mm 2 mps 664 mmHg 69%
    08:00 -2°C° 0 mm 2 mps 665 mmHg 64%
    09:00 -1°C° 0 mm 2 mps 666 mmHg 59%
    10:00 +2°C° 0 mm 2 mps 666 mmHg 55%
    11:00 +2°C° 0 mm 2 mps 667 mmHg 52%
    12:00 +3°C° 0 mm 2 mps 667 mmHg 50%
    13:00 +4°C° 0 mm 2 mps 667 mmHg 47%
    14:00 +3°C° 0 mm 2 mps 667 mmHg 51%
    15:00 +3°C° 0 mm 2 mps 667 mmHg 55%
    16:00 +3°C° 0 mm 1 mps 667 mmHg 59%
    17:00 +1°C° 0 mm 2 mps 667 mmHg 62%
    18:00 -1°C° 0 mm 2 mps 668 mmHg 64%
    19:00 -2°C° 0 mm 2 mps 668 mmHg 66%
    20:00 -3°C° 0 mm 2 mps 668 mmHg 66%
    21:00 -3°C° 0 mm 2 mps 669 mmHg 66%
    22:00 -3°C° 0 mm 2 mps 669 mmHg 66%
    23:00 -4°C° 0 mm 2 mps 669 mmHg 66%

    24 January, Wednesday

    Time Temperature Precipitation Wind Pressure Humidity
    00:00 -4°C° 0 mm 2 mps 669 mmHg 65%
    01:00 -4°C° 0 mm 2 mps 669 mmHg 64%
    02:00 -4°C° 0 mm 2 mps 670 mmHg 63%
    03:00 -4°C° 0 mm 2 mps 670 mmHg 62%
    04:00 -5°C° 0 mm 2 mps 670 mmHg 61%
    05:00 -5°C° 0 mm 2 mps 670 mmHg 61%
    06:00 -5°C° 0 mm 2 mps 670 mmHg 60%
    07:00 -5°C° 0 mm 2 mps 671 mmHg 59%
    08:00 -4°C° 0 mm 2 mps 671 mmHg 53%
    09:00 -2°C° 0 mm 2 mps 672 mmHg 47%
    10:00 -1°C° 0 mm 2 mps 673 mmHg 42%
    11:00 +1°C° 0 mm 2 mps 673 mmHg 40%
    12:00 +3°C° 0 mm 1 mps 673 mmHg 38%
    13:00 +4°C° 0 mm 1 mps 673 mmHg 36%
    14:00 +3°C° 0 mm 1 mps 672 mmHg 41%
    15:00 +3°C° 0 mm 1 mps 672 mmHg 45%
    16:00 +2°C° 0 mm 1 mps 672 mmHg 50%
    17:00 +1°C° 0 mm 1 mps 672 mmHg 52%
    18:00 0°C° 0 mm 1 mps 672 mmHg 55%
    19:00 -1°C° 0 mm 1 mps 672 mmHg 57%
    20:00 -2°C° 0 mm 1 mps 672 mmHg 57%
    21:00 -2°C° 0 mm 1 mps 671 mmHg 58%
    22:00 -2°C° 0 mm 1 mps 671 mmHg 58%
    23:00 -2°C° 0 mm 1 mps 671 mmHg 57%

    25 January, Thursday

    Time Temperature Precipitation Wind Pressure Humidity
    00:00 -2°C° 0 mm 1 mps 671 mmHg 56%
    01:00 -2°C° 0 mm 1 mps 671 mmHg 55%
    02:00 -2°C° 0 mm 1 mps 671 mmHg 54%
    03:00 -2°C° 0 mm 1 mps 670 mmHg 53%
    04:00 -2°C° 0 mm 1 mps 670 mmHg 51%
    05:00 -2°C° 0 mm 1 mps 670 mmHg 50%
    06:00 -2°C° 0 mm 1 mps 670 mmHg 49%
    07:00 -2°C° 0 mm 1 mps 670 mmHg 48%
    08:00 0°C° 0 mm 1 mps 670 mmHg 43%
    09:00 +1°C° 0 mm 1 mps 671 mmHg 38%
    10:00 +3°C° 0 mm 1 mps 671 mmHg 34%
    11:00 +4°C° 0 mm 1 mps 671 mmHg 33%
    12:00 +5°C° 0 mm 1 mps 670 mmHg 32%
    13:00 +6°C° 0 mm 1 mps 670 mmHg 31%
    14:00 +5°C° 0 mm 1 mps 670 mmHg 37%
    15:00 +4°C° 0 mm 1 mps 669 mmHg 43%
    16:00 +3°C° 0 mm 1 mps 669 mmHg 48%
    17:00 +2°C° 0 mm 1 mps 669 mmHg 50%
    18:00 +1°C° 0 mm 1 mps 668 mmHg 51%
    19:00 -1°C° 0 mm 1 mps 668 mmHg 52%
    20:00 -1°C° 0 mm 1 mps 668 mmHg 52%
    21:00 -3°C° 0 mm 2 mps 669 mmHg 51%
    22:00 -4°C° 0 mm 2 mps 669 mmHg 50%
    23:00 -4°C° 0 mm 2 mps 669 mmHg 49%

    26 January, Friday

    Time Temperature Precipitation Wind Pressure Humidity
    00:00 -4°C° 0 mm 2 mps 669 mmHg 48%
    01:00 -4°C° 0 mm 2 mps 669 mmHg 48%
    02:00 -4°C° 0 mm 2 mps 669 mmHg 48%
    03:00 -5°C° 0 mm 2 mps 669 mmHg 47%
    04:00 -5°C° 0 mm 2 mps 668 mmHg 47%
    05:00 -5°C° 0 mm 2 mps 669 mmHg 47%
    06:00 -5°C° 0 mm 2 mps 669 mmHg 47%
    07:00 -5°C° 0 mm 2 mps 669 mmHg 47%
    08:00 -3°C° 0 mm 2 mps 670 mmHg 43%
    09:00 -1°C° 0 mm 2 mps 670 mmHg 39%
    10:00 +2°C° 0 mm 1 mps 671 mmHg 35%
    11:00 +3°C° 0 mm 1 mps 671 mmHg 34%
    12:00 +4°C° 0 mm 1 mps 671 mmHg 33%
    13:00 +5°C° 0 mm 1 mps 671 mmHg 33%
    14:00 +4°C° 0 mm 1 mps 671 mmHg 38%
    15:00 +4°C° 0 mm 1 mps 671 mmHg 43%
    16:00 +3°C° 0 mm 1 mps 671 mmHg 48%
    17:00 +2°C° 0 mm 1 mps 670 mmHg 51%
    18:00 +1°C° 0 mm 1 mps 670 mmHg 53%
    19:00 -1°C° 0 mm 1 mps 670 mmHg 55%
    20:00 -1°C° 0 mm 1 mps 671 mmHg 56%
    21:00 -1°C° 0 mm 1 mps 671 mmHg 56%
    22:00 -1°C° 0 mm 1 mps 671 mmHg 56%
    23:00 -1°C° 0 mm 1 mps 671 mmHg 56%
    Show more